Location: Marcé
(47.5801°N, 0.3280°W)
Time: 23:52:20
(UTC+01:00)

S-56A Canister/Altair - Pass Details

Date: 01 December 2021
Orbit: 633 x 2499 km, 38.9° (Epoch: 17 January)

Event Time Altitude Azimuth Distance (km) Brightness Sun altitude
Rises 23:10:06 0° 190° (S) 5,352 - -57.4°
Reaches altitude 10° 23:17:22 10° 162° (SSE) 3,824 - -58.3°
Maximum altitude 23:19:54 11° 147° (SSE) 3,521 - -58.6°
Drops below altitude 10° 23:22:13 10° 131° (SE) 3,425 - -58.8°
Sets 23:27:27 0° 99° (E) 3,939 - -59.4°
